Location: ????
(33.1659°N, 35.6604°E)
Time: 22:34:58
(UTC+00:00)

SJ-6B - Pass Details

Date: 20 September 2019
Orbit: 509 x 583 km, 97.6° (Epoch: 14 October)

Event Time Altitude Azimuth Distance (km) Brightness Sun altitude
Exits shadow 16:45:38 24° 79° (ENE) 1,224 4.0 -15.0°
Maximum altitude 16:45:56 24° 72° (ENE) 1,217 4.1 -15.1°
Drops below altitude 10° 16:49:15 10° 18° (NNE) 1,891 5.5 -15.7°
Sets 16:51:41 0° 4° (N) 2,784 6.5 -16.2°
